| time (UTC) | temp C | wind direction | speed KPH | gust KPH | rain 1hr cm | rain 24hr cm | rain mn cm | humidity % | barometer mb |
| 20260507124558 | 1 | 223 | 6.4 | 12.9 | 0.00 | 0.69 | 0.00 | 89 | 1017.1 |
| 20260507123106 | 1 | 227 | 4.8 | 12.9 | 0.00 | 0.69 | 0.00 | 89 | 1017.2 |
| 20260507121605 | 1 | 231 | 6.4 | 16.1 | 0.00 | 0.69 | 0.00 | 89 | 1017.2 |
| 20260507120057 | 1 | 214 | 4.8 | 12.9 | 0.00 | 0.69 | 0.00 | 89 | 1017.2 |
| 20260507114601 | 1 | 208 | 6.4 | 14.5 | 0.00 | 0.69 | 0.00 | 89 | 1017.3 |
| 20260507113100 | 1 | 217 | 4.8 | 14.5 | 0.00 | 0.69 | 0.00 | 89 | 1017.2 |
| 20260507111559 | 1 | 226 | 6.4 | 14.5 | 0.00 | 0.69 | 0.00 | 90 | 1017.3 |
| 20260507110118 | 1 | 243 | 4.8 | 12.9 | 0.00 | 0.69 | 0.00 | 90 | 1017.4 |
| 20260507104555 | 1 | 228 | 4.8 | 14.5 | 0.00 | 0.74 | 0.00 | 90 | 1017.6 |
| 20260507103059 | 1 | 206 | 4.8 | 9.7 | 0.00 | 0.74 | 0.00 | 90 | 1017.9 |
| 20260507101558 | 2 | 247 | 6.4 | 16.1 | 0.00 | 0.74 | 0.00 | 90 | 1017.8 |
| 20260507100057 | 1 | 233 | 8.0 | 16.1 | 0.00 | 0.74 | 0.00 | 91 | 1017.8 |
| 20260507094608 | 1 | 261 | 6.4 | 14.5 | 0.00 | 0.86 | 0.00 | 91 | 1018.0 |
| 20260507093059 | 1 | 210 | 6.4 | 16.1 | 0.00 | 0.86 | 0.00 | 91 | 1018.3 |
| 20260507091635 | 2 | 232 | 4.8 | 11.3 | 0.00 | 0.86 | 0.00 | 91 | 1018.6 |
| 20260507090106 | 2 | 240 | 6.4 | 12.9 | 0.00 | 0.86 | 0.00 | 91 | 1018.6 |
| 20260507084558 | 2 | 232 | 4.8 | 16.1 | 0.00 | 0.91 | 0.00 | 91 | 1018.7 |
| 20260507083057 | 2 | 218 | 4.8 | 12.9 | 0.00 | 0.91 | 0.00 | 90 | 1018.8 |
| 20260507081556 | 2 | 215 | 3.2 | 11.3 | 0.00 | 0.91 | 0.00 | 90 | 1018.9 |
| 20260507080057 | 2 | 247 | 3.2 | 6.4 | 0.00 | 0.91 | 0.00 | 91 | 1019.2 |
| 20260507074559 | 2 | 220 | 3.2 | 11.3 | 0.00 | 1.09 | 0.00 | 91 | 1019.4 |
| 20260507073054 | 2 | 218 | 4.8 | 12.9 | 0.00 | 1.09 | 0.00 | 91 | 1019.6 |
| 20260507071559 | 3 | 244 | 3.2 | 8.0 | 0.00 | 1.09 | 0.00 | 91 | 1019.7 |
| 20260507070103 | 3 | 228 | 3.2 | 8.0 | 0.00 | 1.09 | 0.00 | 91 | 1019.9 |
| 20260507064559 | 3 | 216 | 6.4 | 14.5 | 0.00 | 1.22 | 0.00 | 92 | 1020.1 |
| 20260507063058 | 3 | 235 | 3.2 | 11.3 | 0.00 | 1.22 | 0.00 | 92 | 1020.2 |
| 20260507061555 | 3 | 247 | 4.8 | 12.9 | 0.00 | 1.22 | 0.00 | 92 | 1020.5 |
| 20260507060110 | 3 | 243 | 3.2 | 9.7 | 0.00 | 1.22 | 0.00 | 92 | 1020.4 |
| 20260507054559 | 3 | 262 | 1.6 | 6.4 | 0.00 | 1.37 | 0.00 | 92 | 1020.5 |
| 20260507053056 | 4 | 254 | 1.6 | 6.4 | 0.00 | 1.37 | 0.00 | 92 | 1020.5 |
| 20260507051557 | 4 | 193 | 0.0 | 4.8 | 0.00 | 1.37 | 0.00 | 92 | 1020.5 |
| 20260507050100 | 4 | 0 | 0.0 | 3.2 | 0.00 | 1.37 | 0.00 | 92 | 1020.7 |
| 20260507044600 | 4 | 193 | 1.6 | 3.2 | 0.00 | 1.40 | 1.37 | 91 | 1020.7 |
| 20260507043101 | 5 | 193 | 0.0 | 8.0 | 0.00 | 1.40 | 1.37 | 91 | 1020.7 |
| 20260507041558 | 5 | 256 | 0.0 | 4.8 | 0.00 | 1.40 | 1.37 | 91 | 1021.1 |
| 20260507040103 | 5 | 267 | 0.0 | 4.8 | 0.00 | 1.40 | 1.37 | 91 | 1020.8 |
| 20260507034600 | 5 | 268 | 0.0 | 1.6 | 0.00 | 1.40 | 1.37 | 91 | 1020.9 |
| 20260507033056 | 5 | 0 | 0.0 | 1.6 | 0.00 | 1.40 | 1.37 | 91 | 1020.9 |
| 20260507031557 | 5 | 0 | 0.0 | 3.2 | 0.00 | 1.40 | 1.37 | 91 | 1020.9 |
| 20260507030057 | 5 | 0 | 0.0 | 4.8 | 0.00 | 1.40 | 1.37 | 90 | 1020.8 |
| 20260507024602 | 5 | 0 | 0.0 | 1.6 | 0.00 | 1.40 | 1.37 | 89 | 1020.5 |
| 20260507023058 | 5 | 0 | 0.0 | 3.2 | 0.00 | 1.40 | 1.37 | 88 | 1020.2 |
| 20260507021601 | 6 | 0 | 0.0 | 1.6 | 0.00 | 1.40 | 1.37 | 88 | 1019.8 |
| 20260507020057 | 6 | 0 | 0.0 | 0.0 | 0.00 | 1.40 | 1.37 | 88 | 1019.7 |
| 20260507014604 | 6 | 0 | 0.0 | 0.0 | 0.00 | 1.40 | 1.37 | 88 | 1019.6 |
| 20260507013058 | 6 | 0 | 0.0 | 1.6 | 0.03 | 1.40 | 1.37 | 88 | 1019.6 |
| 20260507011611 | 6 | 0 | 0.0 | 3.2 | 0.05 | 1.40 | 1.37 | 88 | 1019.7 |
| 20260507010116 | 6 | 0 | 0.0 | 4.8 | 0.15 | 1.40 | 1.37 | 88 | 1019.9 |
| 20260507004608 | 6 | 314 | 0.0 | 6.4 | 0.18 | 1.40 | 1.37 | 88 | 1019.7 |
| 20260507003105 | 6 | 0 | 0.0 | 3.2 | 0.18 | 1.37 | 1.32 | 87 | 1019.6 |
| 20260507001601 | 6 | 0 | 0.0 | 3.2 | 0.20 | 1.32 | 1.32 | 86 | 1019.6 |
| 20260507000101 | 7 | 54 | 0.0 | 3.2 | 0.10 | 1.24 | 1.22 | 85 | 1019.7 |
| 20260506234614 | 7 | 55 | 0.0 | 3.2 | 0.08 | 1.22 | 1.19 | 84 | 1019.7 |
| 20260506233103 | 7 | 0 | 0.0 | 4.8 | 0.05 | 1.19 | 1.17 | 82 | 1019.6 |
| 20260506231557 | 7 | 57 | 0.0 | 4.8 | 0.00 | 1.14 | 1.12 | 81 | 1019.5 |
| 20260506230056 | 7 | 0 | 3.2 | 8.0 | 0.00 | 1.14 | 1.12 | 80 | 1019.2 |
| 20260506224557 | 8 | 62 | 1.6 | 14.5 | 0.00 | 1.14 | 1.12 | 74 | 1019.1 |
| 20260506223105 | 9 | 95 | 1.6 | 6.4 | 0.00 | 1.14 | 1.12 | 68 | 1019.1 |
| 20260506221617 | 9 | 122 | 1.6 | 6.4 | 0.00 | 1.14 | 1.12 | 66 | 1018.9 |
| 20260506220100 | 9 | 143 | 3.2 | 6.4 | 0.00 | 1.14 | 1.12 | 66 | 1019.2 |
| 20260506214607 | 9 | 114 | 1.6 | 6.4 | 0.00 | 1.14 | 1.12 | 70 | 1019.2 |
| 20260506213105 | 8 | 183 | 0.0 | 9.7 | 0.03 | 1.14 | 1.12 | 77 | 1019.3 |
| 20260506211601 | 8 | 0 | 0.0 | 8.0 | 0.03 | 1.14 | 1.12 | 80 | 1019.5 |
| 20260506204613 | 7 | 85 | 3.2 | 12.9 | 0.05 | 1.14 | 1.12 | 82 | 1019.6 |
| 20260506203056 | 7 | 0 | 1.6 | 6.4 | 0.03 | 1.12 | 1.09 | 85 | 1019.6 |
| 20260506201600 | 6 | 0 | 3.2 | 6.4 | 0.03 | 1.12 | 1.09 | 86 | 1019.9 |
| 20260506200057 | 6 | 77 | 1.6 | 6.4 | 0.03 | 1.12 | 1.09 | 86 | 1019.7 |
| 20260506194558 | 6 | 37 | 3.2 | 6.4 | 0.00 | 1.09 | 1.07 | 86 | 1019.8 |
| 20260506193055 | 6 | 31 | 1.6 | 6.4 | 0.00 | 1.09 | 1.07 | 86 | 1019.8 |
| 20260506191554 | 6 | 0 | 1.6 | 11.3 | 0.03 | 1.09 | 1.07 | 86 | 1019.9 |
| 20260506190059 | 6 | 116 | 4.8 | 14.5 | 0.03 | 1.09 | 1.07 | 86 | 1020.0 |
| 20260506184557 | 6 | 66 | 3.2 | 12.9 | 0.03 | 1.09 | 1.07 | 87 | 1020.1 |
| 20260506183058 | 5 | 73 | 4.8 | 16.1 | 0.03 | 1.09 | 1.07 | 88 | 1020.2 |
| 20260506181553 | 5 | 74 | 6.4 | 14.5 | 0.03 | 1.07 | 1.04 | 88 | 1020.3 |
| 20260506174601 | 5 | 1 | 6.4 | 14.5 | 0.03 | 1.07 | 1.04 | 90 | 1020.4 |
| 20260506173126 | 5 | 83 | 1.6 | 16.1 | 0.03 | 1.07 | 1.04 | 92 | 1020.5 |
| 20260506171555 | 4 | 64 | 4.8 | 11.3 | 0.00 | 1.04 | 1.02 | 92 | 1020.3 |
| 20260506170055 | 3 | 27 | 1.6 | 16.1 | 0.00 | 1.04 | 1.02 | 92 | 1020.3 |
| 20260506164557 | 3 | 23 | 3.2 | 14.5 | 0.00 | 1.04 | 1.02 | 92 | 1020.2 |
| 20260506163056 | 3 | 24 | 4.8 | 9.7 | 0.03 | 1.04 | 1.02 | 92 | 1020.2 |
| 20260506161609 | 3 | 23 | 3.2 | 12.9 | 0.03 | 1.04 | 1.02 | 92 | 1020.1 |
| 20260506160107 | 3 | 45 | 1.6 | 12.9 | 0.05 | 1.04 | 1.02 | 92 | 1020.1 |
| 20260506154600 | 3 | 30 | 3.2 | 11.3 | 0.10 | 1.04 | 1.02 | 92 | 1020.0 |
| 20260506153054 | 3 | 58 | 3.2 | 14.5 | 0.13 | 1.02 | 0.99 | 93 | 1019.9 |
| 20260506151558 | 3 | 67 | 3.2 | 14.5 | 0.15 | 1.02 | 0.99 | 93 | 1019.7 |
| 20260506144611 | 3 | 56 | 1.6 | 11.3 | 0.13 | 0.94 | 0.91 | 94 | 1019.6 |
| 20260506143057 | 3 | 76 | 3.2 | 9.7 | 0.10 | 0.89 | 0.86 | 94 | 1019.4 |
| 20260506141554 | 3 | 45 | 3.2 | 14.5 | 0.13 | 0.86 | 0.84 | 94 | 1019.3 |
| 20260506140112 | 3 | 71 | 1.6 | 6.4 | 0.10 | 0.84 | 0.81 | 94 | 1019.3 |
| 20260506134556 | 3 | 347 | 0.0 | 6.4 | 0.08 | 0.81 | 0.79 | 94 | 1019.4 |
| 20260506133141 | 3 | 0 | 0.0 | 8.0 | 0.05 | 0.79 | 0.76 | 94 | 1019.2 |
| 20260506131558 | 3 | 0 | 0.0 | 6.4 | 0.03 | 0.74 | 0.71 | 94 | 1019.2 |
| 20260506130138 | 3 | 1 | 3.2 | 12.9 | 0.03 | 0.74 | 0.71 | 93 | 1018.9 |